EN

Hourly Weather Alimkent

Today, 20 January, Wednesday

Time Temperature Precipitation Wind Pressure Humidity
00:00 +9°C° 0.1 mm 3 mps 734 mmHg 69%
01:00 +9°C° 0.1 mm 3 mps 734 mmHg 70%
02:00 +9°C° 0.1 mm 3 mps 735 mmHg 70%
03:00 +8°C° 0 mm 3 mps 735 mmHg 72%
04:00 +8°C° 0 mm 3 mps 736 mmHg 73%
05:00 +8°C° 0 mm 2 mps 736 mmHg 75%
06:00 +8°C° 0 mm 2 mps 736 mmHg 74%
07:00 +8°C° 0 mm 2 mps 737 mmHg 72%
08:00 +9°C° 0 mm 1 mps 737 mmHg 71%
09:00 +10°C° 0 mm 2 mps 737 mmHg 63%
10:00 +12°C° 0 mm 2 mps 737 mmHg 56%
11:00 +13°C° 0 mm 3 mps 736 mmHg 48%
12:00 +15°C° 0 mm 2 mps 736 mmHg 43%
13:00 +16°C° 0 mm 2 mps 735 mmHg 38%
14:00 +17°C° 0 mm 2 mps 735 mmHg 33%
15:00 +16°C° 0 mm 2 mps 735 mmHg 36%
16:00 +15°C° 0 mm 1 mps 735 mmHg 40%
17:00 +14°C° 0 mm 1 mps 734 mmHg 43%
18:00 +13°C° 0 mm 1 mps 734 mmHg 46%
19:00 +11°C° 0 mm 1 mps 734 mmHg 49%
20:00 +10°C° 0 mm 1 mps 734 mmHg 52%
21:00 +10°C° 0 mm 1 mps 733 mmHg 53%
22:00 +9°C° 0 mm 1 mps 733 mmHg 53%
23:00 +9°C° 0 mm 1 mps 733 mmHg 53%

Tomorrow, 21 January, Thursday

Time Temperature Precipitation Wind Pressure Humidity
00:00 +8°C° 0 mm 1 mps 732 mmHg 52%
01:00 +8°C° 0 mm 1 mps 731 mmHg 51%
02:00 +7°C° 0 mm 2 mps 731 mmHg 50%
03:00 +6°C° 0 mm 2 mps 730 mmHg 48%
04:00 +6°C° 0 mm 2 mps 730 mmHg 47%
05:00 +6°C° 0 mm 2 mps 729 mmHg 45%
06:00 +6°C° 0 mm 2 mps 729 mmHg 45%
07:00 +7°C° 0 mm 1 mps 728 mmHg 45%
08:00 +7°C° 0 mm 1 mps 728 mmHg 44%
09:00 +9°C° 0 mm 1 mps 728 mmHg 40%
10:00 +11°C° 0 mm 1 mps 727 mmHg 37%
11:00 +13°C° 0 mm 1 mps 727 mmHg 33%
12:00 +14°C° 0 mm 1 mps 726 mmHg 30%
13:00 +15°C° 0 mm 1 mps 725 mmHg 28%
14:00 +16°C° 0 mm 1 mps 725 mmHg 26%
15:00 +15°C° 0 mm 1 mps 724 mmHg 28%
16:00 +14°C° 0 mm 1 mps 724 mmHg 30%
17:00 +14°C° 0 mm 1 mps 723 mmHg 32%
18:00 +12°C° 0 mm 3 mps 724 mmHg 33%
19:00 +10°C° 0 mm 5 mps 725 mmHg 34%
20:00 +10°C° 0 mm 6 mps 725 mmHg 36%
21:00 +9°C° 0.1 mm 5 mps 725 mmHg 47%
22:00 +8°C° 0.1 mm 4 mps 725 mmHg 59%
23:00 +9°C° 0.1 mm 3 mps 725 mmHg 71%

Day after tomorrow, 22 January, Friday

Time Temperature Precipitation Wind Pressure Humidity
00:00 +8°C° 0.4 mm 3 mps 726 mmHg 74%
01:00 +7°C° 0.4 mm 4 mps 726 mmHg 77%
02:00 +6°C° 0.4 mm 4 mps 727 mmHg 80%
03:00 +3°C° 0.8 mm 5 mps 728 mmHg 83%
04:00 +1°C° 0.8 mm 6 mps 729 mmHg 86%
05:00 -2°C° 0.8 mm 8 mps 730 mmHg 88%
06:00 -3°C° 0.4 mm 7 mps 732 mmHg 88%
07:00 -4°C° 0.4 mm 6 mps 735 mmHg 89%
08:00 -6°C° 0.4 mm 5 mps 737 mmHg 89%
09:00 -5°C° 0.9 mm 4 mps 738 mmHg 89%
10:00 -5°C° 0.9 mm 4 mps 740 mmHg 90%
11:00 -5°C° 0.9 mm 4 mps 741 mmHg 90%
12:00 -5°C° 0.3 mm 4 mps 741 mmHg 88%
13:00 -5°C° 0.3 mm 4 mps 742 mmHg 87%
14:00 -5°C° 0.3 mm 3 mps 742 mmHg 85%
15:00 -5°C° 0.1 mm 3 mps 743 mmHg 83%
16:00 -4°C° 0.1 mm 2 mps 743 mmHg 81%
17:00 -4°C° 0.1 mm 2 mps 744 mmHg 80%
18:00 -2°C° 0 mm 1 mps 745 mmHg 79%
19:00 -2°C° 0 mm 1 mps 745 mmHg 79%
20:00 -3°C° 0 mm 1 mps 746 mmHg 79%
21:00 -3°C° 0 mm 1 mps 746 mmHg 79%
22:00 -3°C° 0 mm 1 mps 746 mmHg 78%
23:00 -3°C° 0 mm 1 mps 746 mmHg 77%

23 January, Saturday

Time Temperature Precipitation Wind Pressure Humidity
00:00 -3°C° 0 mm 1 mps 746 mmHg 80%
01:00 -3°C° 0 mm 1 mps 746 mmHg 83%
02:00 -5°C° 0 mm 2 mps 746 mmHg 85%
03:00 -5°C° 0 mm 2 mps 746 mmHg 86%
04:00 -5°C° 0 mm 2 mps 746 mmHg 86%
05:00 -5°C° 0 mm 2 mps 746 mmHg 87%
06:00 -5°C° 0 mm 2 mps 747 mmHg 84%
07:00 -5°C° 0 mm 2 mps 747 mmHg 82%
08:00 -5°C° 0 mm 2 mps 747 mmHg 79%
09:00 -5°C° 0 mm 2 mps 747 mmHg 74%
10:00 -4°C° 0 mm 2 mps 747 mmHg 68%
11:00 -3°C° 0 mm 2 mps 747 mmHg 62%
12:00 -2°C° 0 mm 2 mps 747 mmHg 60%
13:00 -2°C° 0 mm 2 mps 747 mmHg 57%
14:00 -1°C° 0 mm 2 mps 747 mmHg 54%
15:00 -1°C° 0 mm 2 mps 747 mmHg 56%
16:00 -2°C° 0 mm 2 mps 747 mmHg 58%
17:00 0°C° 0 mm 1 mps 747 mmHg 60%
18:00 -2°C° 0 mm 2 mps 747 mmHg 60%
19:00 -2°C° 0 mm 2 mps 748 mmHg 60%
20:00 -2°C° 0 mm 2 mps 748 mmHg 60%
21:00 -3°C° 0 mm 2 mps 748 mmHg 61%
22:00 -3°C° 0 mm 2 mps 748 mmHg 62%
23:00 -3°C° 0 mm 2 mps 748 mmHg 63%

24 January, Sunday

Time Temperature Precipitation Wind Pressure Humidity
00:00 -1°C° 0 mm 1 mps 748 mmHg 64%
01:00 -2°C° 0 mm 1 mps 748 mmHg 65%
02:00 -2°C° 0 mm 1 mps 748 mmHg 67%
03:00 -2°C° 0 mm 1 mps 747 mmHg 66%
04:00 -2°C° 0 mm 1 mps 747 mmHg 66%
05:00 -2°C° 0 mm 1 mps 747 mmHg 66%
06:00 -2°C° 0 mm 1 mps 747 mmHg 65%
07:00 -2°C° 0 mm 1 mps 747 mmHg 65%
08:00 -2°C° 0 mm 1 mps 747 mmHg 64%
09:00 -1°C° 0 mm 1 mps 747 mmHg 60%
10:00 0°C° 0 mm 1 mps 746 mmHg 55%
11:00 +2°C° 0 mm 1 mps 746 mmHg 51%
12:00 +1°C° 0 mm 2 mps 745 mmHg 49%
13:00 +2°C° 0 mm 2 mps 745 mmHg 47%
14:00 +3°C° 0 mm 2 mps 744 mmHg 45%
15:00 +3°C° 0 mm 1 mps 744 mmHg 50%
16:00 +3°C° 0 mm 1 mps 743 mmHg 54%
17:00 +2°C° 0 mm 1 mps 743 mmHg 59%
18:00 +1°C° 0 mm 1 mps 743 mmHg 63%
19:00 0°C° 0 mm 1 mps 743 mmHg 66%
20:00 -1°C° 0 mm 1 mps 743 mmHg 69%
21:00 -1°C° 0 mm 1 mps 743 mmHg 68%
22:00 -1°C° 0 mm 1 mps 742 mmHg 66%
23:00 -2°C° 0 mm 0 mps 742 mmHg 65%

25 January, Monday

Time Temperature Precipitation Wind Pressure Humidity
00:00 -2°C° 0 mm 0 mps 742 mmHg 64%
01:00 -2°C° 0 mm 0 mps 741 mmHg 63%
02:00 -2°C° 0 mm 0 mps 741 mmHg 62%
03:00 -2°C° 0 mm 0 mps 741 mmHg 63%
04:00 -2°C° 0 mm 0 mps 741 mmHg 64%
05:00 -3°C° 0 mm 0 mps 740 mmHg 65%
06:00 -3°C° 0 mm 0 mps 740 mmHg 66%
07:00 -3°C° 0 mm 0 mps 740 mmHg 67%
08:00 -3°C° 0 mm 0 mps 740 mmHg 68%
09:00 -2°C° 0 mm 0 mps 740 mmHg 63%
10:00 0°C° 0 mm 1 mps 740 mmHg 59%
11:00 +2°C° 0 mm 1 mps 740 mmHg 54%
12:00 +2°C° 0 mm 1 mps 740 mmHg 51%
13:00 +3°C° 0 mm 1 mps 739 mmHg 49%
14:00 +4°C° 0 mm 1 mps 739 mmHg 47%
15:00 +3°C° 0 mm 1 mps 739 mmHg 50%
16:00 +3°C° 0 mm 1 mps 739 mmHg 54%
17:00 +1°C° 0 mm 0 mps 739 mmHg 58%
18:00 0°C° 0 mm 0 mps 740 mmHg 60%
19:00 0°C° 0 mm 0 mps 740 mmHg 62%
20:00 -1°C° 0 mm 0 mps 740 mmHg 64%
21:00 -1°C° 0 mm 0 mps 740 mmHg 64%
22:00 -1°C° 0 mm 0 mps 740 mmHg 64%
23:00 -1°C° 0 mm 0 mps 740 mmHg 63%
Show more